Regional Weather Roundup
Issued by NWS Newport/Morehead, NC

Current Version | Previous Version | Graphics & Text | Print | Product List | Glossary Off
Versions: 1 2 3 4 5 6 7 8 9 10 11 12 13 14 15 16 17 18 19 20 21 22 23 24 25 26 27 28 29 30 31 32 33 34 35 36 37 38 39 40 41 42 43 44 45 46 47 48 49 50

000
ASUS42 KMHX 170313
RWRMHX
WEATHER ROUNDUP FOR EASTERN NORTH CAROLINA
NATIONAL WEATHER SERVICE NEWPORT/MOREHEAD CITY NC
1000 PM EST MON JAN 16 2017

NOTE: "FAIR" INDICATES FEW OR NO CLOUDS BELOW 12,000 FEET
WITH NO SIGNIFICANT WEATHER AND/OR OBSTRUCTIONS TO VISIBILITY

NCZ015>017-031-032-045>047-102-103-170400-
NORTH COAST

CITY           SKY/WX    TMP DP  RH WIND       PRES   REMARKS
EDENTON        CLOUDY    43  40  89 CALM      30.36F
ELIZABETH CITY CLOUDY    42  38  85 N3        30.35F
KITTY HAWK     NOT AVBL
MANTEO         CLOUDY    42  40  93 N3        30.35F

$$

NCZ045>047-081-094-103-104-170400-
CENTRAL COAST

CITY           SKY/WX    TMP DP  RH WIND       PRES   REMARKS
FRISCO         CLOUDY    47  43  86 N8        30.34F

$$

NCZ095-097-098-100-101-170400-
SOUTHERN COAST

CITY           SKY/WX    TMP DP  RH WIND       PRES   REMARKS
BEAUFORT       CLOUDY    49  43  80 NE6       30.34F
CEDAR ISLAND   NOT AVBL
JACKSONVILLE   PTCLDY    50  46  86 CALM      30.33F
PINEY ISLAND   CLOUDY   N/A N/A N/A N5        30.34F
WILMINGTON     CLOUDY    52  47  83 NE3       30.34S


$$

NCZ011>013-027>030-043-044-078>080-089-090>093-098-170400-
COASTAL PLAIN

CITY           SKY/WX    TMP DP  RH WIND       PRES   REMARKS
AHOSKIE          N/A     44  39  81 CALM      30.35F
CLINTON        CLOUDY    52  47  82 CALM      30.35S
ELIZABETHTOWN  CLOUDY    52  47  83 CALM      30.35S
GOLDSBORO      CLOUDY    51  46  83 CALM      30.32F
GREENVILLE     CLOUDY    50  45  81 CALM      30.35S
HAVELOCK       CLOUDY    48  44  86 CALM      30.35F
KENANSVILLE    CLOUDY    50  45  81 CALM      30.34F
KINSTON        CLOUDY    50  43  76 CALM      30.34F
NEW BERN       CLOUDY    48  42  80 NE6       30.35F
RICHLANDS      CLOUDY    48  44  86 CALM      30.34F
ROCKY MOUNT    CLOUDY    48  43  82 CALM      30.34F
WASHINGTON     CLOUDY    46  40  79 CALM      30.35F
WHITEVILLE     MOCLDY    51  47  88 CALM      30.34S

$$

AMZ130-135-150-152-154-156-158-170-250-252-270-ANZ085-086-088-633-658-670-170400-
MARINE OBSERVATIONS

STATION/POSITION TIME  TEMP    WIND        PRES    WAVE   SWELL
                       AIR SEA DIR/SP/G            HT/PER HT/PER
                 (UTC) (F)     (DEG/KT/KT) (MB)    (FT/S) (FT/S)
CHESAPEAKE LIGHT NOT AVBL
64 E VA BEACH    0250   54 58   20/  6/  8 1027.2    2/ 8   2/ 8
DUCK             0236   44 44  330/  7/  8 1027.2
2 E DUCK         0300      44                N/A     2/11
OREGON INLET     0236   44 49  340/  4/  6 1027.5
13E OREGON INLT  NOT AVBL
HATTERAS CG      0236   47 53   10/  8/ 10 1027.1
DIAMOND BUOY     0250   54 73  360/ 14/ 16 1027.0    3/ 8   2/ 8
CAPE LOOKOUT     0300   49      10/  5/  6 1027.1
BEAUFORT LAB     0236   48 49   20/  5/  7 1026.4
30 SE NEW RVR IN 0208   54 62   30/ 12/ 14 1027.6
30 SE NEW RVR IN 0243      61                N/A     3/11   2/11
27 SE WRIGHTSVLE 0208   59 68   40/ 12/ 17 1026.8
5 SE WRIGHTSVLE  0208   54      50/ 10/ 14 1027.2
225 S CAPE HAT   0250   70 71  140/ 10/ 12 1027.0    4/ 8   3/ 8
41 SE CHARLESTON 0250   69 70   50/ 14/ 16 1025.4    4/ 6   3/ 9

$$



USA.gov is the U.S. government's official web portal to all federal, state and local government web resources and services.